Location: The Saddle
(36.8333°N, 80.3417°W)
Time: 08:32:31
(UTC-04:00)

Vanguard 2 Rocket - Pass Details

Date: 07 February 2023
Orbit: 555 x 3316 km, 32.9° (Epoch: 27 March)

Event Time Altitude Azimuth Distance (km) Brightness Sun altitude
Rises 05:28:55 0° 195° (SSW) 6,163 11.0 -22.3°
Reaches altitude 10° 05:38:14 10° 164° (SSE) 4,261 10.5 -20.4°
Maximum altitude 05:40:18 11° 153° (SSE) 3,987 10.6 -20.0°
Drops below altitude 10° 05:42:11 10° 142° (SE) 3,828 10.6 -19.6°
Sets 05:48:18 0° 106° (ESE) 4,095 11.8 -18.4°
